{"data":{"norad_id":58733,"epoch":"2026-05-24T10:41:55.399776Z","epoch_age_seconds":122644,"freshness":"FRESH","line1":"1 58733U 24005F   26144.44578009  .00001898  00000+0  78476-4 0  9992","line2":"2 58733  43.0006 151.5754 0001399 274.6576  85.4116 15.27578856132025","mean_motion":15.27578856,"eccentricity":0.0001399,"inclination_deg":43.0006,"raan_deg":151.5754,"arg_perigee_deg":274.6576,"mean_anomaly_deg":85.4116,"bstar":7.8476e-5,"rev_number":13202,"period_min":94.266819309785,"perigee_km":482.09264117527,"apogee_km":484.01240200341,"semimajor_km":6861.1895215893,"source":"CELESTRAK","updated_at":"2026-05-25T13:38:18.719556Z"}}